{"data":{"norad_id":44343,"intl_designator":"2019-036E","name":"FORMOSAT 7-3","alt_names":[],"object_type":"PAYLOAD","status":"ACTIVE","operator":null,"country":"ROC","launch_date":"2019-06-25","launch_site_code":"AFETR","launch_vehicle":null,"mission":null,"orbit_class":"UNKNOWN","rcs_meters":null,"size_class":null,"mass_kg":null,"dimensions":null,"purposes":[],"wikipedia_slug":null,"has_3d_model":false,"image_url":null,"decayed_at":null,"tle_current":{"epoch":"2026-09-20T00:02:03.622848Z","epoch_age_seconds":101538,"freshness":"FRESH","line1":"1 44343U 19036E   26263.00143082  .00003216  00000+0  17009-3 0  9995","line2":"2 44343  23.9985 245.6609 0000493   2.7432 357.3074 15.10410208397596","mean_motion":15.10410208,"eccentricity":4.93e-5,"inclination_deg":23.9985,"raan_deg":245.6609,"arg_perigee_deg":2.7432,"mean_anomaly_deg":357.3074,"bstar":0.00017009,"rev_number":39759,"period_min":95.338338709109,"perigee_km":534.6072345935,"apogee_km":535.28886477939,"semimajor_km":6913.0850496864,"source":"CELESTRAK","updated_at":"2026-09-20T09:00:14.461663Z"}}}